Simultaneous Nadir Overpasses (SNOs) Predictions

Prediction of SNOs between NOAA-19 and TERRA Satellite Orbit:

Table of predicted SNOs for the next 14.0 days since TLE Epoch: 8/4/2018
Index Date (NOAA-19) Time (NOAA-19) Lat,Lon (NOAA-19) SZA (NOAA-19 ) Date (TERRA) Time (TERRA) Lat,Lon (TERRA) SZA (TERRA ) Distance(km) Time Diff (sec)
1 08/04/2018 14:45:20 77.31, -24.17 60.62 08/04/2018 14:46:09 77.35, -24.20 60.66 4.01 49
2 08/04/2018 15:36:14 -77.28, 143.25 119.40 08/04/2018 15:35:38 -77.27, 143.12 119.43 3.44 36
3 08/06/2018 20:18:49 -77.36, 72.31 118.74 08/06/2018 20:19:53 -77.36, 72.44 118.71 3.10 64
4 08/06/2018 21:09:54 77.30,-120.18 61.23 08/06/2018 21:09:20 77.31,-120.15 61.23 1.23 34
5 08/09/2018 01:52:29 77.38, 168.88 61.91 08/09/2018 01:53:36 77.36, 168.98 61.92 3.14 67
6 08/09/2018 02:43:22 -77.31, -23.53 118.12 08/09/2018 02:43:04 -77.33, -23.50 118.11 2.06 18
7 08/11/2018 07:26:08 -77.83, -96.74 117.13 08/11/2018 07:27:12 -77.74, -92.85 116.95 91.92 64
8 08/11/2018 08:17:02 77.33, 73.03 62.56 08/11/2018 08:16:47 77.32, 73.04 62.54 1.20 15
9 08/13/2018 13:50:30 -77.35, 169.65 116.75 08/13/2018 13:50:31 -77.35, 169.71 116.75 1.51 1
10 08/15/2018 19:24:09 77.34, -93.65 63.95 08/15/2018 19:24:14 77.34, -93.75 63.94 2.33 5
11 08/15/2018 20:14:55 -76.98, 75.30 116.27 08/15/2018 20:13:47 -77.08, 72.89 116.36 61.14 68
12 08/18/2018 00:57:37 -77.36, 2.99 115.33 08/18/2018 00:57:58 -77.37, 2.94 115.31 2.06 21




NCC Satellite Simultaneous Nadir Overpasses (SNOs) Prediction Service
